Regional Weather Roundup
Issued by NWS

Home | Current Version | Previous Version | Graphics & Text | Print | Product List | Glossary On
Versions: 1 2 3 4 5 6 7 8 9 10 11 12 13 14 15 16 17 18 19 20 21 22 23 24 25 26 27
000
ASUS45 KBOU 180910
RWRCO

WEATHER ROUNDUP FOR COLORADO
NATIONAL WEATHER SERVICE DENVER/BOULDER CO
200 AM MST MON DEC 18 2017

NOTE: "FAIR" INDICATES FEW OR NO CLOUDS BELOW 12000 FEET WITH NO
SIGNIFICANT WEATHER AND/OR OBSTRUCTIONS TO VISIBILITY.

COZ001>005-013-030-031-181000-
...NORTHWEST COLORADO...

CITY           SKY/WX    TMP DP  RH WIND       PRES   REMARKS
CRAIG          CLOUDY    11   8  88 CALM      30.21R
HAYDEN         CLOUDY    19  14  81 E8        30.21R WCI   9
MEEKER         CLOUDY    18  13  80 CALM      30.19R
RABBIT EARS PA CLOUDY   N/A N/A N/A W14G20    30.10R
STEAMBOAT SPGS CLOUDY    15  13  91 CALM      30.18S
WALDEN         FAIR      14   7  73 SE8       30.11S WCI   3
$$

COZ006>008-011-181000-
...WEST CENTRAL VALLEYS...

CITY           SKY/WX    TMP DP  RH WIND       PRES   REMARKS
GRAND JUNCTION FAIR      23  10  57 CALM      30.19R
MONTROSE       FAIR      17   6  62 SE5       30.22R WCI  10
EAGLE          FAIR      11   5  77 S3        30.23R
RIFLE          FAIR      16   8  71 SE3       30.21R
DELTA          FAIR      20   4  50 NE5       30.22R WCI  14
NUCLA          FAIR      21   1  42 E6        30.20R WCI  14
$$

COZ017>023-064>068-181000-
...SOUTHWEST COLORADO...

CITY           SKY/WX    TMP DP  RH WIND       PRES   REMARKS
DURANGO        FAIR      16   3  56 CALM      30.12R
CORTEZ         FAIR      13   3  64 E5        30.14R WCI   5
PAGOSA SPRINGS FAIR      16   3  56 CALM      30.13S
TELLURIDE      FAIR      23   1  39 SE3       30.16S
WOLF CREEK PAS NOT AVBL
$$

COZ009-010-012-014-032>034-037-058>063-181000-
...CENTRAL COLORADO...

CITY           SKY/WX    TMP DP  RH WIND       PRES   REMARKS
ASPEN          FAIR      12   4  70 S6        30.17R WCI   3
BUENA VISTA    FAIR      26   5  41 NW16G28   30.07R WCI  13
COPPER MTN     NOT AVBL
BERTHOUD PASS  HAZE       9  -4  56 NW26G35   30.07S VSB 1/2 WCI -13
COTTONWOOD PAS FAIR      32   3  29 W12G22    30.07R WCI  23
GUNNISON       FAIR       3  -2  79 CALM      30.20R
KREMMLING      FAIR      10   7  85 CALM      30.21R
LEADVILLE      FAIR      12  -1  56 N9        30.12R WCI   0
MONARCH PASS   FAIR      14   3  62 W33       30.20R WCI  -8
SALIDA         FAIR      32   4  29 NW14      30.14R WCI  22
SUNLIGHT       FAIR      16   7  67 SW6       30.20R WCI   7
WILKERSON PASS FAIR      21  -4  33 W9        30.08R WCI  11
$$

COZ069>075-181000-
...SAN LUIS VALLEY/SANGRE DE CRISTO MOUNTAINS...

CITY           SKY/WX    TMP DP  RH WIND       PRES   REMARKS
ALAMOSA        FAIR       7   3  84 S5        30.12S WCI  -2
DEL NORTE      FAIR      15   2  57 CALM      30.13R
LA VETA PASS   FAIR      23   7  50 SW35G47     N/A  WCI   4
SAGUACHE       FAIR      23   3  42 NW16      30.13S WCI  10
$$

COZ035-036-038>040-181000-
...NORTHERN COLORADO FRONT RANGE...

CITY           SKY/WX    TMP DP  RH WIND       PRES   REMARKS
DENVER INTL AP FAIR      22  17  81 SW8       29.97R WCI  12
DMNS CITY PARK NOT AVBL
AURORA         CLEAR     22  15  72 CALM      29.97R
FRONT RANGE AP FAIR      26  22  83 SW8       29.97R WCI  18
ERIE MUNI ARPT FAIR      17  15  93 S3        30.02F FOG
BOULDER MUN AP FAIR      27  23  86 SW5       29.96F WCI  21
CENTENNIAL     FAIR      23  15  71 W7        29.97R WCI  15
BROOMFIELD     FAIR      27  23  86 CALM      29.96S FOG
FORT COLLINS   FAIR      21  20  96 CALM      29.98R
LONGMONT       NOT AVBL
$$

COZ041-046-047-076>085-087-088-181000-
...PIKES PEAK/PALMER DIVIDE AND SOUTHERN FOOTHILLS...

CITY           SKY/WX    TMP DP  RH WIND       PRES   REMARKS
COLO. SPRINGS  FAIR      25  13  60 NW6       29.97R WCI  18
A. F. ACADEMY  FAIR      21   9  59 CALM      29.96R
SCHRIEVER AFB  FAIR      25  12  58 N7        29.96R WCI  17
CHEYENNE MTN   FAIR      35   4  27 NW6       29.91R WCI  30
ELLICOTT         N/A    N/A N/A N/A NE5       29.95R
FALCON         NOT AVBL
FORT CARSON    FAIR      19  15  86 N7        29.95R WCI  10
LIMON          FAIR       6   4  91 CALM      29.97R
MONUMENT HILL  FAIR      28   9  43 SW10      29.98R WCI  19
CANON CITY     FAIR      34  12  40 W12       29.95S WCI  25
WALSENBURG     FAIR      39   9  28 W13       29.98S
TRINIDAD       FAIR      26  12  55 NW8       29.98S WCI  18
$$

COZ042>045-048>051-090-091-181000-
...NORTHEAST COLORADO...

CITY           SKY/WX    TMP DP  RH WIND       PRES   REMARKS
GREELEY ARPT   FAIR      16  13  88 W7        30.00R WCI   6
AKRON          FAIR      23  18  81 W9        29.96R WCI  13
BURLINGTON     FAIR      20  18  92 W9        29.98R WCI   9
WRAY           FAIR      21  19  93 W6        29.99R WCI  14
YUMA           FAIR      21  18  86 W8        29.97R WCI  12
STERLING       FAIR      14  12  92 SW5       29.98R WCI   6
HOLYOKE        FAIR      23  19  86 W7        29.97S WCI  15
FORT MORGAN    FAIR      14  11  91 W6        29.98S WCI   5
$$

COZ086-089-092>099-181000-
...SOUTHEAST COLORADO...

CITY           SKY/WX    TMP DP  RH WIND       PRES   REMARKS
PUEBLO         FAIR      12   9  87 CALM      29.99R
LA JUNTA       FAIR      19  16  88 W6        30.00S WCI  11
LAMAR          FAIR      10   7  87 SW5       29.99R WCI   2
SPRINGFIELD      N/A     17  15  92 NW8       29.96R WCI   7
$$




USA.gov is the U.S. government's official web portal to all federal, state and local government web resources and services.